STARLINK-30757, 58131

Orbit data source: Space-Track

STARLINK-30757, 58131 is a payload satellite owned by SpaceX/Seattle (US) in LEO that was launched on Sun, 22 Oct 2023 UTC via an FALCON 9 launch vehicle from the Air Force Eastern Test Range (AFETR). Payload-class satellites include a variety of spacecraft equipped with specific instruments for various scientific and technological missions. These include communications satellites like Starlink; space stations such as the ISS; scientific satellites like the Hubble; Earth observation satellites from companies like Planet Labs, Umbra, and HawkEye 360; GPS; miniature CubeSats for education and research; and military/defense satellites.

Loading next visibility...
Identifier
58131, 2023-162P
Orbit
LEO
Country
Flag of USUS
Related business
Manufacturer
SpaceX/Seattle
Mission
Operational Commercial Communications
Bus & Motor
STARLINK V2M, Unknown motor
Mass
730 kg wet, ~700 kg dry
Launch date (UTC)
2023-10-22 (2 years ago)
Launch vehicle
FALCON 9
Launch site
Air Force Eastern Test Range (AFETR)
Object type
Payload
Rocket body
Debris
Shape & HBR
Box + 2 Pan, 17.7 m
Radar Cross Section
33.884 m², Large (>1 m²)

Expand to show TLE details & history
Last TLE update: 1 day ago

TLE from 1 day ago
0 STARLINK-30757
1 58131U 23162P   25348.66658748  .00001200  00000-0  10389-3 0  9991
2 58131  43.0025 234.7949 0000986 273.3048  86.7682 15.02533616119518
Epoch: 2025-12-14T15:59Z
TLE epoch observation values (Epoch: 2025-12-14T15:59:53.158Z)
Latitude
0.00002°
Longitude
-88.75279°
Altitude
558.827 km
Speed
7.584 km/s
True Right ascension
15h 39m 10s
True Declination
0° 00' 00"
Sunlit
Object was in daylight at epoch
Visualization orbit readout
Latitude
Unknown
Longitude
Unknown
Altitude
Unknown
Speed
Unknown
Apparent Right ascension
Unknown
Apparent Declination
Unknown
Sunlit
N/A
Visualization observer readout
Local Sidereal Time
17:23:09
Azimuth
Unknown
Elevation
Unknown
Doppler factor
Unknown
Orbital elements
Apogee altitude
561.695 km
Perigee altitude
560.326 km
Semi-major axis
6,939.147 km
Eccentricity
0.0001
Inclination
43.0025°
RAAN
234.7949°
Arg. of periapsis
273.3048°
True anomaly
86.77948°
Mean anomaly
86.7682°
Eccentric anomaly
86.77384°
Mean motion
3.75478 °/min
Orbital period
95.88 mins
BSTAR
0.00010389
Loading maneuver chart data...
Computing Atmospheric mass density...
Loading historical data...
Loading historical data...
Loading historical data...
Loading historical data...
Loading historical data...
Loading historical data...
Loading historical data...

Documentation

Showing up to 5 results
|